Flag for Canada

Past Weather in Dryden, Ontario, Canada — Yesterday and Last 2 Weeks

Now
73 °F

Broken clouds.


Feels Like: 77 °F
Forecast: 74 / 62 °F
Wind: 16 mph from West

Location: Dryden Airport

Current Time: Jul 10, 2020 at 1:23:02 pm

Latest Report: Jul 10, 2020 at 1:00 pm


Visibility: 9 mi

Pressure: 29.88 "Hg

Humidity: 57%

Dew Point: 57 °F

Location of DrydenLocation

Past Weather in Dryden — Graph

°F

Dryden Temperature Yesterday

Maximum temperature yesterday: 81 °F (at 3:00 pm)
Minimum temperature yesterday: 64 °F (at 6:06 am)
Average temperature yesterday: 71 °F

High & Low Weather Summary for the Past Weeks

 TemperatureHumidityPressure
High93 °F (Jul 3, 4:00 pm)100% (Jun 26, 6:23 am)30.11 "Hg (Jun 26, 6:23 am)
Low57 °F (Jun 27, 6:00 am)32% (Jun 25, 2:00 pm)29.67 "Hg (Jul 9, 1:53 pm)
Average73 °F70%29.86 "Hg
* Reported Jun 25 12:00 pm — Jul 10 12:00 pm, Dryden. Weather by CustomWeather, © 2020

Note: Actual official high and low records may vary slightly from our data, if they occured in-between our weather recording intervals... More about our weather records

Dryden Weather History for the Previous 24 Hours

Scroll right to see more
 ConditionsComfort  
Time TempWeatherWind HumidityBarometerVisibility
12:00 pm
Fri, Jul 10
72 °FOvercast.12 mph61%29.88 "Hg9 mi
11:00 am70 °FMore clouds than sun.13 mph64%29.88 "Hg9 mi
10:00 am66 °FCloudy.10 mph78%29.88 "Hg9 mi
9:57 am66 °FCloudy.7 mph78%29.88 "Hg9 mi
9:00 am64 °FCloudy.13 mph83%29.88 "Hg9 mi
8:00 am64 °FOvercast.8 mph88%29.86 "Hg9 mi
7:00 am63 °FPartly sunny.8 mph88%29.85 "Hg9 mi
6:00 am61 °FPartly sunny.8 mph94%29.83 "Hg9 mi
5:00 am61 °FScattered clouds.8 mph94%29.82 "Hg9 mi
4:39 am63 °FPartly sunny.8 mph88%29.81 "Hg9 mi
4:00 am63 °FPassing clouds.7 mph88%29.80 "Hg9 mi
3:00 am63 °FClear.7 mph88%29.79 "Hg9 mi
2:00 am63 °FPassing clouds.7 mph88%29.79 "Hg9 mi
1:00 am63 °FClear.7 mph88%29.79 "Hg9 mi
12:00 am63 °FClear.7 mph83%29.79 "Hg9 mi
11:00 pm
Thu, Jul 9
64 °FClear.8 mph78%29.78 "Hg9 mi
10:00 pm64 °FClear.7 mph73%29.78 "Hg9 mi
9:00 pm68 °FClear.13 mph64%29.76 "Hg9 mi
8:00 pm70 °FSunny.17 mph60%29.75 "Hg9 mi
7:00 pm73 °FSunny.22 mph50%29.72 "Hg9 mi
6:00 pm73 °FSunny.24 mph50%29.70 "Hg9 mi
5:00 pm77 °FPassing clouds.22 mph51%29.69 "Hg9 mi
4:00 pm77 °FPassing clouds.18 mph47%29.68 "Hg9 mi
3:00 pm81 °FBroken clouds.23 mph42%29.67 "Hg9 mi
2:10 pm77 °FBroken clouds.15 mph61%29.67 "Hg9 mi
1:53 pm77 °FThunderstorms. Broken clouds.12 mph61%29.67 "Hg9 mi
1:00 pm79 °FSunny.15 mph58%29.68 "Hg9 mi
Weather by CustomWeather, © 2020

See weather overview